PDT,Max TemperatureF,Mean TemperatureF,Min TemperatureF,Max Dew PointF,MeanDew PointF,Min DewpointF,Max Humidity, Mean Humidity, Min Humidity, Max Sea Level PressureIn, Mean Sea Level PressureIn, Min Sea Level PressureIn, Max VisibilityMiles, Mean VisibilityMiles, Min VisibilityMiles, Max Wind SpeedMPH, Mean Wind SpeedMPH, Max Gust SpeedMPH,PrecipitationIn, CloudCover, Events, WindDirDegrees
2012-10-1,104,83,62,37,34,32,37,16,8,29.99,29.90,29.83,10,10,10,15,3,22,0.00,0,,240
2012-10-2,102,83,64,50,36,30,32,17,9,29.90,29.86,29.81,10,10,10,13,4,22,0.00,0,,265
2012-10-3,93,78,62,48,42,36,48,25,13,30.00,29.97,29.94,10,10,10,18,4,,0.00,4,,241
2012-10-4,84,72,59,54,46,36,68,40,18,30.11,30.07,30.02,10,10,10,10,3,,0.00,3,,245
2012-10-5,82,68,55,55,49,45,77,48,26,30.07,30.00,29.94,10,8,7,9,3,,0.00,3,,245
2012-10-6,80,68,55,57,51,46,82,49,30,29.99,29.94,29.88,10,10,10,9,2,,0.00,4,,233
2012-10-7,84,70,55,57,52,46,88,51,27,29.95,29.91,29.86,10,10,10,13,4,,0.00,1,,240
2012-10-8,80,68,57,57,53,48,82,55,32,30.00,29.95,29.92,10,7,5,10,3,,0.00,2,,255
2012-10-9,75,68,60,55,52,48,77,55,38,30.02,29.96,29.91,10,6,3,10,4,,0.00,5,,240
2012-10-10,73,66,59,54,50,45,82,58,36,30.01,29.96,29.89,10,8,7,9,7,,0.00,5,,242
2012-10-11,62,58,53,52,47,39,88,63,42,29.96,29.93,29.89,10,8,5,12,2,,0.00,7,Rain,209
2012-10-12,64,58,53,52,48,45,94,67,52,30.15,30.11,30.05,10,10,10,9,0,,0.00,7,,230
2012-10-13,75,62,48,52,47,45,87,57,34,30.21,30.13,30.06,10,10,10,6,1,,0.00,2,,230
2012-10-14,91,74,57,45,37,36,63,21,14,30.10,30.00,29.94,10,10,10,8,5,,0.00,0,,171
2012-10-15,93,75,57,45,38,32,55,27,12,29.99,29.92,29.86,10,10,10,9,2,,0.00,2,,228
2012-10-16,93,74,55,52,39,34,54,25,12,29.89,29.81,29.75,10,10,7,13,5,,0.00,0,,257
2012-10-17,98,76,55,39,36,32,51,19,11,29.87,29.81,29.77,10,10,10,9,2,,0.00,0,,266
2012-10-18,80,72,64,61,58,52,78,58,42,30.09,30.05,30.01,10,9,7,18,5,17,0.00,4,,244
2012-10-19,84,70,55,59,55,52,88,56,33,30.02,29.95,29.88,10,10,10,13,4,,0.00,0,,240
2012-10-20,73,66,60,57,56,54,88,69,50,29.94,29.88,29.83,10,7,2,10,4,,0.00,6,,217
2012-10-21,71,66,60,55,54,52,77,64,50,29.92,29.90,29.87,10,10,10,9,3,,0.00,8,,247
2012-10-22,71,65,59,55,50,45,88,58,38,29.99,29.96,29.92,10,8,5,15,4,,0.00,4,,253
2012-10-23,69,62,55,50,43,37,82,52,31,30.00,29.96,29.92,10,8,5,14,4,,0.00,4,,243
2012-10-24,71,60,48,46,41,37,71,47,31,30.05,30.02,29.99,10,10,10,14,5,16,0.00,1,,257
2012-10-25,80,62,44,34,29,27,54,26,15,30.07,30.01,29.94,10,10,10,12,3,,0.00,0,,270
2012-10-26,80,64,48,28,22,14,46,18,10,30.10,30.03,29.96,10,10,10,17,6,24,0.00,0,,32
2012-10-27,89,68,48,43,23,19,82,18,8,29.96,29.90,29.85,10,10,10,12,2,,0.00,0,,284
2012-10-28,89,68,48,32,25,21,40,17,8,30.00,29.95,29.91,10,10,10,12,4,,0.00,0,,262
2012-10-29,87,68,50,39,30,25,43,23,11,30.22,30.07,30.00,10,10,10,8,2,,0.00,0,,259
2012-10-30,86,66,46,45,29,25,46,23,12,30.08,30.02,29.97,10,10,10,12,2,,0.00,0,,235
2012-10-31,78,62,46,50,38,32,66,39,21,30.05,30.01,29.96,10,6,4,9,2,,0.00,3,,240